TAP209K LPPT-KJFK

Flight info

Callsign TAP209K
Flight time N/A
Altitude 38000
Route ELNUB DCT DETOX/M082F380 DCT 42N020W 43N030W 44N040W 44N050W/M082F400 DCT BOBTU DCT JAROM N56G LOMPI/N0463F400 N56G BRADD DCT PLYMM PARCH4
Aircraft A339/H-SDE1E2E3GHIJ1J3J5M1P2RWXYZ/LB2D1

Departure

Time 2026-05-06 16:41
Airport Lisbon Humberto Delgado Airport (LPPT)

Arrival

Time N/A
Airport John F. Kennedy International Airport (KJFK)
Time Latitude Longitude Altitude Speed Heading
2026-05-06 16:21 38.77671 -9.13213 388 ft 0 kts 120°
2026-05-06 16:28 38.77672 -9.13214 388 ft 1 kts 120°
2026-05-06 16:28 38.77679 -9.13230 388 ft 2 kts 120°
2026-05-06 16:28 38.77687 -9.13247 388 ft 2 kts 120°
2026-05-06 16:29 38.77694 -9.13263 388 ft 2 kts 120°
2026-05-06 16:29 38.77702 -9.13280 388 ft 2 kts 120°
2026-05-06 16:29 38.77710 -9.13296 388 ft 2 kts 127°
2026-05-06 16:29 38.77719 -9.13311 388 ft 2 kts 136°
2026-05-06 16:30 38.77731 -9.13323 388 ft 2 kts 143°
2026-05-06 16:30 38.77739 -9.13331 388 ft 2 kts 149°
2026-05-06 16:30 38.77757 -9.13342 388 ft 2 kts 159°
2026-05-06 16:30 38.77770 -9.13348 388 ft 0 kts 167°
2026-05-06 16:31 38.77773 -9.13349 388 ft 0 kts 168°
2026-05-06 16:33 38.77759 -9.13345 388 ft 3 kts 168°
2026-05-06 16:33 38.77748 -9.13342 388 ft 0 kts 168°
2026-05-06 16:33 38.77747 -9.13341 388 ft 0 kts 168°
2026-05-06 16:34 38.77734 -9.13338 388 ft 0 kts 168°
2026-05-06 16:36 38.77726 -9.13337 388 ft 4 kts 179°
2026-05-06 16:36 38.77661 -9.13373 388 ft 12 kts 211°
2026-05-06 16:36 38.77583 -9.13426 388 ft 13 kts 206°
2026-05-06 16:36 38.77495 -9.13482 388 ft 13 kts 210°
2026-05-06 16:37 38.77447 -9.13531 388 ft 5 kts 194°
2026-05-06 16:37 38.77385 -9.13524 388 ft 11 kts 169°
2026-05-06 16:37 38.77318 -9.13511 388 ft 5 kts 188°
2026-05-06 16:37 38.77287 -9.13566 388 ft 11 kts 258°
2026-05-06 16:38 38.77267 -9.13689 388 ft 15 kts 258°
2026-05-06 16:38 38.77238 -9.13819 388 ft 15 kts 233°
2026-05-06 16:38 38.77139 -9.13895 388 ft 18 kts 204°
2026-05-06 16:38 38.77009 -9.13966 388 ft 20 kts 203°
2026-05-06 16:39 38.76879 -9.14036 388 ft 20 kts 202°
2026-05-06 16:39 38.76751 -9.14105 388 ft 19 kts 204°
2026-05-06 16:39 38.76628 -9.14174 388 ft 19 kts 203°
2026-05-06 16:39 38.76539 -9.14249 388 ft 14 kts 251°
2026-05-06 16:40 38.76578 -9.14383 388 ft 18 kts 330°
2026-05-06 16:40 38.76751 -9.14333 388 ft 46 kts 22°
2026-05-06 16:40 38.77237 -9.14070 388 ft 103 kts 22°
2026-05-06 16:40 38.78061 -9.13631 389 ft 151 kts 22°
2026-05-06 16:41 38.79122 -9.13043 569 ft 175 kts 20°
2026-05-06 16:41 38.80241 -9.12332 1047 ft 181 kts 27°
2026-05-06 16:41 38.81279 -9.11506 1756 ft 175 kts 27°
2026-05-06 16:41 38.82309 -9.10710 2304 ft 177 kts 26°
2026-05-06 16:42 38.83435 -9.09894 2660 ft 190 kts 25°
2026-05-06 16:42 38.84636 -9.09080 2973 ft 205 kts 19°
2026-05-06 16:42 38.86071 -9.08956 3258 ft 219 kts 339°
2026-05-06 16:42 38.87298 -9.10217 3567 ft 240 kts 302°